Flag for Russia Weather past 2 weeks in Kaliningrad, Russia

Now
63 °F

Passing clouds.


Feels Like: 63 °F
Forecast: 38 / 65 °F
Wind: 13 mph from East

Location: Kaliningrad/Khrabrovo Airport


UV Index: 3 (Moderate)

Visibility: N/A


Pressure: 30.24 "Hg

Humidity: 24%

Dew point: 25 °F

Location of KaliningradLocation

Historic Weather in Kaliningrad

°F

Kaliningrad temperature yesterday

Maximum temperature yesterday: 61 °F (at 1:30 PM)
Minimum temperature yesterday: 41 °F (at 4:00 AM)
Average temperature yesterday: 52 °F

Past Weeks' High & Low Weather Summary

 TemperatureHumidityPressure
High72 °F (Apr 20, 3:30 PM)93% (Apr 9, 9:30 PM)30.39 "Hg (Apr 9, 9:30 PM)
Low28 °F (Apr 17, 3:00 AM)24% (Apr 17, 3:30 PM)29.56 "Hg (Apr 14, 1:00 PM)
Average49 °F68%30.02 "Hg
* Reported Apr 9 5:00 PM — Apr 24 5:30 PM, Kaliningrad, Weather by CustomWeather, © 2014

Note: Actual official high and low records may vary slightly from our data, if they occured in-between our weather recording intervals... More about our weather records

Advertising

Historic Weather Conditions — Data for Previous 24 hours

 ConditionsComfort  
Time TempWeatherWind HumidityBarometerVisibility
5:30 PM
Apr 24
63 °FSunny.13 mph30%30.24 "Hg10 mi
5:00 PM61 °FPassing clouds.10 mph27%30.27 "HgN/A
4:30 PM61 °FPassing clouds.13 mph27%30.27 "HgN/A
4:00 PM61 °FSunny.15 mph27%30.27 "Hg10 mi
3:30 PM61 °FPassing clouds.15 mph29%30.27 "HgN/A
3:00 PM61 °FPassing clouds.15 mph31%30.27 "HgN/A
2:30 PM61 °FSunny.17 mph29%30.30 "Hg10 mi
2:00 PM61 °FPassing clouds.17 mph29%30.30 "HgN/A
1:30 PM61 °FPassing clouds.17 mph31%30.30 "HgN/A
1:00 PM59 °FSunny.17 mph34%30.30 "Hg10 mi
12:30 PM61 °FSunny.17 mph39%30.30 "Hg10 mi
12:00 PM59 °FPassing clouds.15 mph34%30.30 "HgN/A
11:30 AM57 °FPassing clouds.13 mph36%30.30 "HgN/A
11:00 AM55 °FPassing clouds.15 mph41%30.30 "HgN/A
10:00 AM54 °FSunny.13 mph44%30.30 "Hg10 mi
9:30 AM52 °FPassing clouds.10 mph47%30.30 "HgN/A
9:00 AM50 °FPassing clouds.13 mph50%30.30 "HgN/A
8:30 AM48 °FSunny.13 mph50%30.30 "Hg10 mi
8:00 AM48 °FClear.10 mph50%30.30 "Hg10 mi
7:30 AM46 °FClear.8 mph53%30.27 "Hg10 mi
7:00 AM45 °FClear.6 mph57%30.27 "Hg10 mi
6:30 AM45 °FClear.8 mph57%30.27 "Hg10 mi
6:00 AM46 °FClear.13 mph53%30.27 "Hg10 mi
5:30 AM46 °FClear.10 mph57%30.27 "Hg10 mi
5:00 AM46 °FClear.10 mph62%30.27 "Hg10 mi
4:30 AM46 °FClear.10 mph66%30.24 "Hg10 mi
4:00 AM48 °FClear.10 mph62%30.24 "Hg10 mi
3:30 AM48 °FClear.6 mph66%30.24 "Hg10 mi
3:00 AM46 °FPassing clouds.6 mph71%30.24 "HgN/A
2:30 AM48 °FClear.8 mph66%30.24 "Hg10 mi
2:00 AM50 °FClear.10 mph62%30.24 "Hg10 mi
1:00 AM52 °FPassing clouds.10 mph54%30.24 "HgN/A
12:30 AM52 °FPassing clouds.10 mph62%30.21 "HgN/A
12:00 AM54 °FClear.13 mph58%30.21 "Hg10 mi
11:30 PM
Apr 23
54 °FClear.13 mph58%30.21 "Hg10 mi
11:00 PM55 °FClear.13 mph59%30.21 "Hg10 mi
10:30 PM55 °FPassing clouds.13 mph63%30.21 "HgN/A
10:00 PM55 °FSunny.10 mph67%30.18 "Hg10 mi
9:30 PM50 °FSunny.1 mph76%30.18 "Hg10 mi
9:00 PM50 °FSunny.3 mph76%30.15 "Hg10 mi
8:30 PM52 °FSunny.1 mph72%30.15 "Hg10 mi
8:00 PM54 °FPassing clouds.3 mph67%30.15 "HgN/A
7:30 PM55 °FSunny.6 mph63%30.15 "Hg10 mi
7:00 PM57 °FPassing clouds.6 mph59%30.15 "HgN/A
6:30 PM55 °FPassing clouds.8 mph63%30.15 "HgN/A
6:00 PM55 °FSunny.8 mph63%30.15 "Hg10 mi
Weather by CustomWeather, © 2014

See weather overview